Date String (YYYY-MM-DD hh:mm:ss) UTC,Instrument flags,Ambient pressure (hPa),Sample flow (lpm),Bypass flow (lpm),Sample temperature (°C),Ambient temperature (°C),ASC tube jacket temperature (°C),LED temperature (°C),Box temperature (°C),Sample RH (%),Span deviation,Mass concentration (μg/m³),Mass concentration (μg/m³),Mass concentration (μg/m³)
DateTimeUTC,F1_M11,P_M11,Q1_M11,Q2_M11,T1_M11,T2_M11,T3_M11,T4_M11,T5_M11,U1_M11,ZSPAN_M11,X0_M11,X2_M11,X1_M11
2022-09-23 13:00:00,,0825.2,5.01,0.00,29.5,27.9,00.0,38.2,31.3,18.6,0000.0,0006.62,0004.05,0003.71
2022-09-23 13:01:00,,0825.2,4.99,0.00,29.5,27.9,00.0,38.2,31.3,20.0,0000.0,0006.63,0004.08,0003.76
2022-09-23 13:02:00,,0825.2,5.00,0.00,29.5,27.9,00.0,38.2,31.3,20.9,0000.0,0006.91,0004.21,0003.89
2022-09-23 13:03:00,,0825.2,5.00,0.00,29.5,27.9,00.0,38.2,31.3,21.4,0000.0,0007.09,0004.35,0004.05
2022-09-23 13:04:00,,0825.3,5.00,0.00,29.5,27.9,00.0,38.2,31.3,21.7,0000.0,0007.33,0004.46,0004.17
2022-09-23 13:05:00,,0825.4,5.00,0.00,29.5,27.9,00.0,38.2,31.3,22.6,0000.0,0007.50,0004.56,0004.28
2022-09-23 13:06:00,,0825.3,5.00,0.00,29.5,27.9,00.0,38.2,31.3,23.6,0000.0,0007.63,0004.76,0004.47
2022-09-23 13:07:00,,0825.3,5.00,0.00,29.5,27.9,00.0,38.2,31.3,23.7,-000.6,0007.77,0005.05,0004.78
2022-09-23 13:08:00,,0825.3,5.01,0.00,29.5,27.9,00.0,38.2,31.3,23.8,-002.2,0008.00,0005.35,0005.07
2022-09-23 13:09:00,,0825.3,4.99,0.00,29.5,27.9,00.0,38.2,31.3,24.1,-002.0,0008.28,0005.70,0005.42
2022-09-23 13:10:00,,0825.4,5.01,0.00,29.5,27.9,00.0,38.2,31.3,24.4,-002.3,0008.67,0006.14,0005.89
2022-09-23 13:11:00,,0825.3,4.99,0.00,29.5,28.0,00.0,38.2,31.3,24.4,-002.3,0009.20,0006.63,0006.38
2022-09-23 13:12:00,,0825.3,5.01,0.00,29.5,28.0,00.0,38.2,31.3,24.0,-002.3,0009.68,0007.01,0006.79
2022-09-23 13:13:00,,0825.3,5.01,0.00,29.5,28.0,00.0,38.2,31.3,20.9,-002.3,0010.34,0007.10,0006.90
2022-09-23 13:14:00,,0825.2,4.98,0.00,29.5,28.0,00.0,38.2,31.4,18.8,-002.4,0010.29,0007.05,0006.84
2022-09-23 13:15:00,,0825.3,5.01,0.00,29.5,28.0,00.0,38.2,31.4,18.8,-002.4,0010.14,0006.97,0006.76
2022-09-23 13:16:00,,0825.2,4.99,0.00,29.5,28.0,00.0,38.2,31.4,18.6,-002.3,0009.98,0006.82,0006.60
2022-09-23 13:17:00,,0825.3,5.01,0.00,29.5,28.0,00.0,38.2,31.4,18.1,-002.4,0009.72,0006.51,0006.28
2022-09-23 13:18:00,,0825.3,4.99,0.00,29.5,28.0,00.0,38.2,31.4,17.2,-002.5,0009.50,0006.19,0005.94
2022-09-23 13:19:00,,0825.3,5.01,0.00,29.5,28.0,00.0,38.2,31.4,18.7,-002.7,0009.94,0005.86,0005.61
2022-09-23 13:20:00,,0825.4,5.00,0.00,29.5,27.9,00.0,38.2,31.3,21.4,-002.8,0009.80,0005.61,0005.33
2022-09-23 13:21:00,,0825.3,5.00,0.00,29.5,27.8,00.0,38.2,31.3,22.1,-002.6,0009.66,0005.41,0005.12
2022-09-23 13:22:00,,0825.3,5.00,0.00,29.5,27.8,00.0,38.2,31.3,20.3,-000.1,0009.21,0005.00,0004.73
2022-09-23 13:23:00,,0825.3,5.00,0.00,29.5,27.8,00.0,38.2,31.3,21.2,0000.0,0008.93,0004.70,0004.41
2022-09-23 13:24:00,,0825.3,4.99,0.00,29.5,27.8,00.0,38.2,31.3,23.6,0000.0,0008.29,0004.81,0004.50
2022-09-23 13:25:00,,0825.4,5.00,0.00,29.4,27.7,00.0,38.2,31.3,24.3,-000.5,0008.68,0005.19,0004.87
2022-09-23 13:26:00,,0825.4,5.01,0.00,29.4,27.7,00.0,38.2,31.3,24.6,-001.8,0009.04,0005.60,0005.29
2022-09-23 13:27:00,,0825.3,4.98,0.00,29.4,27.7,00.0,38.2,31.2,24.6,-002.6,0009.51,0006.03,0005.69
2022-09-23 13:28:00,,0825.3,5.01,0.00,29.4,27.8,00.0,38.2,31.2,24.8,-002.7,0010.01,0006.52,0006.15
2022-09-23 13:29:00,,0825.4,4.99,0.00,29.4,27.8,00.0,38.2,31.3,24.7,-002.9,0010.78,0007.03,0006.68
2022-09-23 13:30:00,,0825.5,5.01,0.00,29.4,27.8,00.0,38.2,31.3,24.7,-002.8,0010.99,0007.53,0007.16
2022-09-23 13:31:00,,0825.4,4.99,0.00,29.4,27.9,00.0,38.2,31.3,24.9,-003.1,0011.36,0007.93,0007.55
2022-09-23 13:32:00,,0825.5,5.01,0.00,29.4,27.9,00.0,38.2,31.3,25.0,-003.5,0011.62,0008.23,0007.85
2022-09-23 13:33:00,,0825.4,5.00,0.00,29.4,27.9,00.0,38.2,31.3,25.1,-003.5,0012.11,0008.69,0008.29
2022-09-23 13:34:00,,0825.4,5.00,0.00,29.4,27.9,00.0,38.2,31.3,25.0,-003.3,0012.49,0009.07,0008.68
2022-09-23 13:35:00,,0825.5,5.00,0.00,29.4,27.9,00.0,38.2,31.3,24.0,-003.3,0012.64,0009.20,0008.81
2022-09-23 13:36:00,,0825.3,5.01,0.00,29.4,27.9,00.0,38.2,31.3,22.7,-003.2,0012.62,0009.12,0008.73
2022-09-23 13:37:00,,0825.4,4.99,0.00,29.5,28.0,00.0,38.2,31.3,21.6,-003.3,0012.43,0008.89,0008.52
2022-09-23 13:38:00,,0825.3,4.99,0.00,29.5,28.0,00.0,38.2,31.3,22.0,-003.1,0012.12,0008.67,0008.33
2022-09-23 13:39:00,,0825.3,4.98,0.00,29.5,28.0,00.0,38.2,31.3,20.0,-003.0,0011.79,0008.35,0008.03
2022-09-23 13:40:00,,0825.5,5.01,0.00,29.5,28.0,00.0,38.2,31.3,20.4,-002.9,0011.11,0008.02,0007.71
2022-09-23 13:41:00,,0825.4,4.99,0.00,29.5,28.0,00.0,38.2,31.3,21.1,-002.7,0010.44,0007.73,0007.42
2022-09-23 13:42:00,,0825.4,5.01,0.00,29.5,28.0,00.0,38.2,31.3,20.3,-002.2,0010.21,0007.35,0007.07
2022-09-23 13:43:00,,0825.4,4.99,0.00,29.5,28.0,00.0,38.2,31.3,19.5,-001.8,0009.84,0006.92,0006.63
2022-09-23 13:44:00,,0825.4,5.02,0.00,29.5,28.0,00.0,38.2,31.3,19.8,-001.6,0009.40,0006.46,0006.16
2022-09-23 13:45:00,,0825.3,4.99,0.00,29.5,28.0,00.0,38.2,31.4,20.4,-001.7,0008.96,0006.02,0005.71
2022-09-23 13:46:00,,0825.4,5.01,0.00,29.5,28.0,00.0,38.2,31.4,22.3,-001.7,0008.74,0005.78,0005.44
2022-09-23 13:47:00,,0825.4,5.00,0.00,29.5,28.0,00.0,38.2,31.4,24.0,-001.7,0008.91,0005.95,0005.58
2022-09-23 13:48:00,,0825.4,5.01,0.00,29.5,28.1,00.0,38.2,31.4,24.6,-002.1,0009.53,0006.33,0005.95
2022-09-23 13:49:00,,0825.3,4.99,0.00,29.5,28.1,00.0,38.2,31.4,24.2,-002.3,0010.10,0006.63,0006.26
2022-09-23 13:50:00,,0825.4,5.01,0.00,29.5,28.1,00.0,38.2,31.4,22.4,-002.5,0010.35,0006.79,0006.41
2022-09-23 13:51:00,,0825.3,4.98,0.00,29.5,28.1,00.0,38.2,31.4,22.0,-002.7,0010.46,0006.93,0006.56
2022-09-23 13:52:00,,0825.3,5.01,0.00,29.5,28.1,00.0,38.3,31.3,22.3,-003.0,0010.60,0007.03,0006.67
2022-09-23 13:53:00,,0825.3,4.99,0.00,29.5,28.1,00.0,38.3,31.3,19.5,-003.3,0010.49,0007.04,0006.66
2022-09-23 13:54:00,,0825.4,5.01,0.00,29.5,28.1,00.0,38.3,31.4,18.5,-003.4,0010.39,0006.99,0006.60
2022-09-23 13:55:00,,0825.3,5.00,0.00,29.6,28.1,00.0,38.3,31.4,19.2,-003.3,0010.42,0007.00,0006.60
2022-09-23 13:56:00,,0825.4,4.99,0.00,29.6,28.1,00.0,38.3,31.4,19.7,-003.2,0010.49,0007.02,0006.61
2022-09-23 13:57:00,,0825.5,5.02,0.00,29.6,28.1,00.0,38.3,31.4,19.2,-003.1,0010.39,0006.87,0006.45
2022-09-23 13:58:00,,0825.4,4.99,0.00,29.6,28.1,00.0,38.3,31.4,20.2,-003.2,0009.82,0006.40,0006.01
2022-09-23 13:59:00,,0825.3,5.00,0.00,29.6,28.1,00.0,38.3,31.4,19.6,-003.0,0008.94,0005.82,0005.45
